Wind_Speed
51 53 54 51 51 50 53 55 57 60 58 52 54 55 58 57 64 66 64 64 59 65 64 62 56 59 65 71 75 82 76 69 51 62 63 61 61 65 71 78 76 74 73
54 55 54 54 56 56 58 60 60 65 55 52 53 57 60 63 67 70 68 62 64 69 66 65 60 61 77 80 86 89 87 74 54 52 66 70 62 59 66 71 78 78 77
55 55 56 57 57 59 61 61 58 53 50 57 60 62 68 71 68 69 66 65 70 68 65 62 49 74 76 87 88 92 95 80 60 46 59 68 67 57 56 65 71 80 80
58 58 60 62 62 64 64 66 61 65 56 60 64 72 73 67 68 68 70 71 70 65 64 62 52 68 79 90 96 103 102 74 58 50 53 63 62 58 52 53 66 72 80
63 64 65 65 66 67 69 65 55 62 61 65 68 72 75 73 71 68 70 72 71 66 63 55 61 65 90 96 102 104 109 74 59 48 49 56 61 59 57 52 59 67 74
66 68 68 65 62 64 50 48 46 69 59 66 70 84 81 76 72 75 75 71 70 66 55 59 60 88 100 101 105 108 111 74 65 52 43 46 55 58 60 55 53 60 67
64 66 66 61 57 48 44 48 66 68 67 71 85 90 83 77 72 73 76 71 67 59 59 64 87 93 103 103 109 114 101 84 73 57 43 39 47 57 60 59 55 50 55
63 65 65 61 54 50 45 60 66 70 77 82 87 90 90 79 74 79 67 55 56 54 61 86 94 100 106 104 111 117 98 87 78 54 41 41 42 55 59 60 57 55 56
68 69 64 58 53 44 48 56 62 72 79 80 86 91 82 76 68 53 51 56 56 66 94 93 98 107 105 111 114 108 97 90 76 56 41 37 42 48 54 55 60 60 61
68 67 66 64 49 42 49 55 61 70 76 78 81 74 59 53 50 51 55 61 72 103 105 100 101 104 109 110 110 103 100 87 75 54 44 38 36 39 47 51 57 58 64
69 67 62 54 49 46 44 50 56 63 71 76 72 63 43 42 50 59 67 78 96 112 110 107 105 112 113 104 104 96 89 88 68 52 43 37 31 31 36 44 51 55 56
68 59 52 47 42 39 46 49 52 59 63 69 73 62 49 55 63 72 82 90 100 113 105 106 109 111 108 106 103 93 87 80 60 48 38 34 29 27 31 37 42 43 48
60 51 42 44 40 41 48 51 56 62 70 71 75 76 73 65 75 89 91 96 101 108 108 107 107 108 107 107 98 91 81 67 51 42 34 30 25 23 25 26 27 32 41
48 42 36 45 42 50 59 57 62 68 69 77 83 86 93 93 94 95 99 103 106 103 104 103 105 108 105 96 95 86 74 61 45 37 30 26 23 22 21 20 21 27 33
54 42 42 51 53 49 57 64 69 77 84 89 92 97 96 95 96 101 102 101 99 99 101 104 106 98 98 97 91 79 67 52 40 32 27 25 24 21 16 15 18 18 24
52 47 47 52 61 67 73 80 79 79 82 89 92 94 97 100 104 95 98 91 95 98 98 94 95 100 96 91 80 71 57 44 35 29 26 27 23 21 19 15 14 18 19
69 66 69 66 69 77 82 75 79 90 93 97 97 101 96 95 98 87 85 87 90 95 99 99 100 95 88 79 71 59 49 39 31 27 29 28 24 22 19 19 19 17 21
75 76 76 74 73 78 84 85 85 89 95 96 99 97 96 84 89 95 98 99 102 102 95 92 91 82 75 65 57 51 40 36 30 28 32 30 27 23 21 19 16 15 21
83 83 77 77 76 75 79 84 85 90 95 96 90 85 89 95 98 103 106 101 94 90 86 81 74 64 57 55 49 42 37 33 31 30 35 33 29 23 22 20 19 19 25
93 80 77 77 81 85 87 89 94 95 89 85 90 95 98 101 105 98 86 82 78 72 68 64 57 52 50 45 41 36 34 34 31 32 38 37 33 27 23 18 19 24 33
84 82 85 85 86 91 92 100 97 87 92 97 97 100 102 92 80 76 70 65 63 59 54 52 51 47 42 39 36 34 32 33 32 35 40 43 39 33 28 23 26 27 36
89 91 92 89 94 98 99 88 91 96 97 98 98 90 77 72 66 64 63 61 56 52 49 46 44 42 40 36 33 31 30 30 33 34 39 47 46 40 35 31 33 41 46
85 90 92 93 91 90 94 97 100 100 99 94 79 73 68 64 58 55 54 51 47 44 43 40 37 36 35 32 30 28 27 27 31 34 36 47 52 48 43 39 40 49 55
82 87 88 92 95 96 98 98 97 94 83 76 69 64 59 55 51 47 44 42 39 36 33 29 29 29 29 27 24 23 24 26 29 32 35 38 54 54 50 45 43 48 64
91 91 93 94 94 95 92 86 81 74 68 64 60 56 52 48 43 38 37 34 32 32 31 29 28 27 25 22 20 19 20 20 23 29 32 37 45 60 57 51 48 46 71
90 86 80 75 71 70 70 66 64 61 59 56 53 51 47 44 42 40 37 35 32 31 31 30 29 27 24 22 20 20 21 21 21 22 24 31 35 53 63 60 54 53 65
Wind_Direction
304 304 306 309 310 311 309 309 310 311 310 309 311 310 313 309 314 315 315 318 320 319 318 317 313 331 335 336 336 337 340 336 309 283 274 268 256 242 239 235 232 228 226
302 303 303 307 310 311 308 311 311 310 305 309 311 309 310 311 314 312 314 316 316 315 312 312 317 331 335 334 337 335 334 333 330 301 278 271 267 256 243 238 235 232 227
297 300 304 304 306 307 309 313 310 309 300 302 308 311 312 312 309 310 311 314 312 310 308 306 312 328 330 333 334 331 335 332 320 302 284 272 270 266 257 241 235 232 232
298 299 300 304 309 310 313 313 309 311 298 302 309 312 314 311 308 311 314 311 308 307 305 302 307 313 322 327 330 333 334 328 322 299 278 271 269 267 262 250 238 233 230
298 302 305 307 311 313 317 308 301 313 293 299 306 308 308 308 308 309 309 309 306 306 300 301 299 313 322 326 328 332 331 328 322 306 282 272 266 261 257 252 243 235 231
297 299 301 306 311 315 320 275 287 301 289 293 293 301 306 307 307 309 309 309 310 306 296 298 302 318 322 328 327 329 328 325 323 312 288 276 267 259 254 249 243 238 232
296 297 301 306 312 309 293 271 275 289 288 291 296 298 302 304 307 309 308 306 312 302 314 313 315 317 324 325 323 326 324 325 324 316 301 281 267 259 252 247 243 238 234
296 298 299 304 306 301 278 277 276 271 286 289 292 296 299 302 306 307 302 307 305 298 302 311 316 320 322 322 320 322 322 325 322 314 304 287 266 256 250 249 246 240 234
295 295 299 300 304 293 283 280 278 275 284 288 290 295 303 308 306 298 294 294 300 311 313 311 311 316 317 317 319 320 319 322 321 314 307 286 269 257 253 247 247 242 236
293 296 298 299 295 287 283 282 275 281 283 284 289 302 313 306 295 288 285 291 304 316 315 308 312 315 315 315 314 317 317 321 320 316 310 295 274 256 248 245 245 240 240
293 293 295 297 291 293 281 275 275 279 278 283 291 304 300 296 282 285 294 300 308 315 310 310 311 311 311 314 316 315 319 322 318 317 308 297 279 260 243 240 242 240 235
294 295 292 293 284 276 277 270 271 269 280 291 293 294 290 281 277 283 290 295 300 306 305 305 304 306 310 313 312 315 321 319 317 313 305 294 281 262 249 242 240 242 237
294 294 301 294 274 261 259 270 275 282 284 287 294 293 289 281 281 288 292 294 301 303 306 305 306 306 309 308 310 315 317 317 316 308 301 287 272 259 253 249 242 236 236
294 288 280 281 277 267 272 278 273 278 282 292 296 296 299 302 303 305 305 300 300 301 301 301 303 304 305 308 312 314 317 315 311 303 289 270 258 257 253 253 245 236 232
291 272 268 273 270 267 272 279 280 281 284 288 291 293 296 299 299 297 297 298 297 296 297 299 300 302 304 308 311 314 315 311 304 294 271 253 252 248 246 245 250 248 231
293 253 271 271 266 269 275 277 278 282 285 291 295 296 295 297 298 298 297 295 294 295 297 298 299 302 305 307 309 313 309 305 295 282 248 246 245 241 240 241 257 252 233
290 282 284 279 275 273 280 286 283 286 292 296 299 299 297 294 294 295 294 294 294 295 296 301 301 303 305 306 307 306 303 295 284 267 235 241 238 235 243 254 251 243 230
284 288 288 284 285 284 285 287 289 290 291 293 296 295 296 293 292 294 295 296 296 298 298 300 301 303 304 303 301 301 294 284 273 250 227 236 234 236 245 239 243 233 209
286 288 285 286 291 293 292 292 292 292 293 295 291 290 290 291 294 296 297 297 297 296 297 299 299 299 300 299 296 293 284 273 266 245 223 227 229 230 243 244 233 219 194
295 293 291 294 294 292 293 294 292 292 290 290 289 291 292 295 296 298 296 295 295 296 299 299 298 298 297 294 291 285 275 265 257 242 220 219 224 220 227 212 210 206 182
290 286 286 288 292 292 290 289 291 288 285 290 293 296 296 295 296 296 296 296 295 296 296 296 297 297 295 293 289 280 272 260 252 240 221 216 220 215 214 213 201 192 184
284 285 286 287 287 287 288 286 287 290 292 296 297 298 298 298 297 297 296 294 295 295 293 293 293 293 293 292 288 279 272 260 252 241 229 215 218 216 208 209 188 185 178
284 284 284 287 288 287 287 288 291 295 296 298 297 299 299 298 300 299 296 294 294 293 291 291 291 292 293 292 287 276 268 261 253 247 235 220 215 219 209 206 197 186 187
284 284 284 284 285 286 287 290 293 293 295 296 299 300 302 304 303 298 295 295 295 293 291 292 294 294 290 288 284 278 270 260 253 246 238 231 218 216 217 209 206 197 188
282 282 284 284 284 285 287 289 291 293 296 298 300 300 301 300 299 298 296 296 298 301 302 304 299 291 282 275 272 270 265 260 258 246 245 233 225 216 219 214 209 202 191
284 285 284 284 283 282 285 289 292 294 294 295 295 296 299 301 299 297 297 298 299 297 296 298 292 285 277 267 264 265 267 264 262 257 256 240 231 220 217 218 214 209 201
Height
10910 10907 10905 10901 10897 10894 10889 10883 10878 10870 10865 10861 10856 10850 10844 10840 10835 10829 10822 10817 10814 10807 10801 10793 10787 10785 10782 10773 10765 10760 10756 10753 10747 10729 10724 10723 10724 10733 10738 10746 10755 10764 10772
10902 10900 10895 10892 10887 10883 10878 10872 10867 10859 10853 10849 10844 10839 10833 10827 10820 10813 10810 10806 10800 10794 10788 10780 10776 10769 10762 10757 10749 10741 10735 10728 10723 10718 10700 10697 10702 10707 10717 10727 10736 10745 10754
10895 10891 10887 10882 10878 10872 10865 10859 10850 10847 10840 10835 10830 10825 10820 10814 10807 10800 10795 10793 10786 10779 10773 10765 10762 10758 10745 10738 10730 10725 10715 10705 10703 10694 10678 10672 10676 10682 10691 10700 10712 10720 10732
10883 10880 10876 10871 10867 10861 10852 10843 10836 10831 10827 10822 10816 10811 10806 10799 10793 10788 10782 10777 10769 10762 10756 10748 10747 10737 10731 10722 10712 10703 10692 10686 10677 10672 10662 10651 10653 10657 10666 10675 10684 10696 10708
10868 10865 10860 10857 10855 10848 10840 10825 10823 10818 10813 10808 10803 10799 10792 10786 10779 10772 10766 10761 10753 10747 10740 10735 10729 10725 10715 10705 10693 10679 10674 10663 10654 10648 10642 10634 10630 10636 10643 10650 10659 10672 10681
10857 10854 10847 10846 10843 10838 10836 10823 10814 10811 10800 10792 10788 10783 10776 10771 10761 10755 10750 10746 10741 10732 10726 10721 10715 10708 10698 10686 10675 10661 10653 10645 10634 10628 10620 10616 10611 10615 10620 10630 10639 10647 10660
10847 10841 10836 10837 10836 10840 10835 10826 10805 10800 10786 10781 10773 10766 10760 10753 10744 10738 10731 10728 10726 10721 10716 10710 10703 10691 10679 10670 10655 10643 10634 10627 10617 10608 10599 10596 10595 10595 10601 10608 10618 10628 10640
10833 10830 10827 10827 10827 10825 10822 10813 10797 10785 10774 10769 10758 10751 10743 10733 10727 10719 10713 10709 10708 10704 10701 10694 10684 10673 10660 10654 10639 10628 10615 10607 10598 10591 10581 10576 10578 10575 10581 10590 10600 10612 10619
10821 10816 10813 10815 10813 10809 10802 10792 10785 10773 10763 10755 10744 10739 10725 10711 10706 10700 10698 10695 10691 10688 10686 10674 10669 10657 10647 10633 10624 10611 10597 10587 10581 10571 10563 10562 10561 10563 10564 10572 10578 10592 10601
10808 10803 10797 10793 10794 10796 10787 10777 10770 10759 10747 10739 10732 10725 10713 10698 10694 10685 10680 10679 10677 10677 10667 10657 10647 10639 10629 10618 10607 10597 10583 10569 10563 10552 10545 10545 10546 10549 10549 10554 10558 10568 10580
10796 10790 10782 10779 10770 10769 10767 10759 10748 10736 10727 10725 10721 10716 10709 10694 10684 10677 10675 10671 10662 10651 10643 10635 10628 10619 10611 10600 10590 10580 10567 10554 10544 10536 10531 10531 10531 10533 10536 10538 10540 10547 10559
10777 10776 10768 10758 10754 10750 10744 10738 10729 10721 10715 10710 10708 10707 10704 10696 10683 10675 10669 10662 10654 10643 10630 10622 10611 10604 10591 10582 10572 10562 10551 10540 10530 10522 10520 10520 10520 10521 10522 10525 10528 10532 10538
10754 10753 10750 10745 10741 10735 10728 10720 10713 10707 10702 10696 10690 10688 10686 10684 10676 10666 10656 10648 10638 10623 10615 10604 10594 10584 10576 10564 10553 10544 10535 10524 10516 10511 10510 10510 10511 10511 10512 10514 10518 10521 10524
10734 10732 10727 10727 10724 10720 10713 10707 10698 10692 10687 10680 10672 10668 10663 10657 10648 10640 10632 10622 10614 10606 10597 10586 10576 10566 10556 10545 10535 10527 10518 10509 10504 10502 10502 10502 10504 10504 10505 10507 10508 10510 10514
10722 10716 10711 10707 10706 10699 10695 10692 10686 10678 10673 10666 10661 10655 10649 10639 10632 10625 10615 10603 10594 10585 10575 10565 10555 10546 10538 10527 10516 10509 10503 10497 10494 10492 10493 10495 10497 10498 10499 10500 10501 10503 10507
10703 10699 10698 10696 10692 10685 10680 10674 10668 10663 10658 10650 10640 10633 10626 10617 10609 10597 10588 10580 10572 10563 10553 10545 10536 10529 10518 10508 10500 10495 10489 10486 10485 10484 10485 10487 10490 10492 10493 10496 10497 10498 10501
10678 10680 10676 10675 10670 10665 10657 10651 10647 10640 10632 10627 10617 10610 10601 10591 10582 10571 10564 10557 10550 10543 10533 10523 10516 10505 10497 10489 10485 10480 10477 10475 10476 10476 10477 10479 10483 10486 10487 10489 10492 10493 10496
10659 10656 10651 10648 10645 10641 10636 10631 10625 10617 10611 10606 10598 10587 10576 10565 10559 10552 10543 10535 10527 10517 10507 10501 10492 10484 10478 10472 10468 10465 10464 10464 10465 10466 10468 10471 10475 10479 10481 10484 10487 10488 10491
10637 10633 10627 10623 10618 10613 10609 10606 10600 10594 10586 10579 10570 10562 10555 10547 10537 10527 10516 10507 10498 10491 10484 10478 10471 10467 10461 10457 10453 10452 10452 10452 10454 10456 10459 10463 10467 10472 10476 10479 10481 10483 10487
10610 10606 10603 10601 10596 10591 10588 10581 10576 10570 10563 10556 10547 10538 10531 10520 10510 10501 10490 10483 10475 10468 10463 10458 10453 10450 10447 10443 10439 10438 10439 10439 10442 10445 10449 10454 10459 10465 10470 10474 10476 10479 10483
10591 10586 10582 10578 10575 10572 10566 10559 10555 10547 10540 10533 10523 10514 10504 10496 10488 10477 10468 10463 10456 10451 10446 10441 10437 10434 10432 10429 10427 10426 10426 10426 10429 10434 10438 10444 10449 10457 10464 10469 10472 10475 10477
10568 10564 10559 10556 10552 10547 10541 10534 10531 10521 10513 10506 10497 10487 10479 10471 10465 10457 10448 10443 10440 10436 10431 10427 10424 10421 10418 10416 10415 10414 10414 10414 10417 10422 10427 10433 10440 10447 10456 10462 10466 10471 10476
10543 10537 10533 10529 10525 10521 10515 10508 10501 10494 10486 10480 10472 10465 10459 10452 10446 10439 10431 10426 10424 10421 10417 10416 10412 10408 10406 10405 10404 10403 10402 10403 10405 10409 10416 10422 10429 10436 10446 10454 10460 10464 10471
10522 10515 10512 10507 10502 10498 10491 10484 10477 10469 10464 10458 10452 10446 10440 10434 10430 10424 10418 10415 10413 10409 10406 10405 10401 10399 10397 10396 10395 10394 10393 10394 10395 10398 10403 10411 10418 10425 10432 10443 10451 10457 10461
10497 10493 10488 10483 10478 10472 10466 10460 10455 10450 10443 10438 10434 10430 10426 10422 10417 10412 10408 10405 10402 10397 10393 10392 10390 10390 10390 10389 10388 10387 10386 10385 10386 10388 10392 10398 10405 10414 10421 10429 10439 10447 10455
10470 10465 10461 10457 10453 10449 10445 10442 10437 10432 10428 10423 10420 10415 10412 10409 10406 10402 10397 10393 10390 10387 10384 10383 10382 10381 10381 10381 10380 10380 10380 10379 10379 10380 10383 10387 10393 10400 10408 10417 10425 10436 10444